TimeCST,TemperatureF,Dew PointF,Humidity,Sea Level PressureIn,VisibilityMPH,Wind Direction,Wind SpeedMPH,Gust SpeedMPH,PrecipitationIn,Events,Conditions,WindDirDegrees,DateUTC
12:15 AM,37.4,28.4,70,29.78,10.0,SW,4.6,-,N/A,,Clear,220,2013-01-28 06:15:00
12:35 AM,39.2,28.4,65,29.78,10.0,SSE,5.8,-,N/A,,Clear,150,2013-01-28 06:35:00
12:55 AM,39.2,28.4,65,29.78,10.0,SSW,9.2,-,N/A,,Clear,200,2013-01-28 06:55:00
1:15 AM,39.2,28.4,65,29.78,10.0,SSW,6.9,-,N/A,,Clear,210,2013-01-28 07:15:00
1:35 AM,39.2,28.4,65,29.78,10.0,SW,8.1,-,N/A,,Clear,230,2013-01-28 07:35:00
1:55 AM,39.2,28.4,65,29.78,10.0,WSW,11.5,-,N/A,,Clear,240,2013-01-28 07:55:00
2:15 AM,37.4,28.4,70,29.78,10.0,SW,9.2,-,N/A,,Clear,220,2013-01-28 08:15:00
2:35 AM,35.6,26.6,70,29.78,10.0,WSW,9.2,-,N/A,,Clear,240,2013-01-28 08:35:00
2:55 AM,37.4,28.4,70,29.78,10.0,WSW,10.4,-,N/A,,Clear,240,2013-01-28 08:55:00
3:15 AM,37.4,26.6,65,29.78,10.0,WSW,10.4,-,N/A,,Clear,250,2013-01-28 09:15:00
3:35 AM,35.6,26.6,70,29.78,10.0,West,8.1,-,N/A,,Clear,260,2013-01-28 09:35:00
3:55 AM,33.8,24.8,70,29.79,10.0,West,6.9,-,N/A,,Clear,270,2013-01-28 09:55:00
4:15 AM,33.8,24.8,70,29.79,10.0,WSW,10.4,-,N/A,,Clear,250,2013-01-28 10:15:00
4:35 AM,37.4,28.4,70,29.79,10.0,West,11.5,-,N/A,,Clear,260,2013-01-28 10:35:00
4:55 AM,37.4,26.6,65,29.79,10.0,WSW,9.2,-,N/A,,Clear,250,2013-01-28 10:55:00
5:15 AM,35.6,26.6,70,29.78,10.0,SSW,10.4,-,N/A,,Clear,210,2013-01-28 11:15:00
5:35 AM,37.4,26.6,65,29.78,10.0,SW,8.1,-,N/A,,Clear,220,2013-01-28 11:35:00
5:55 AM,37.4,28.4,70,29.78,10.0,SW,8.1,-,N/A,,Clear,220,2013-01-28 11:55:00
6:15 AM,37.4,28.4,70,29.78,10.0,SW,13.8,-,N/A,,Clear,220,2013-01-28 12:15:00
6:35 AM,37.4,28.4,70,29.77,10.0,SSW,8.1,-,N/A,,Clear,200,2013-01-28 12:35:00
6:55 AM,37.4,28.4,70,29.78,10.0,SSW,10.4,-,N/A,,Clear,200,2013-01-28 12:55:00
7:15 AM,35.6,26.6,70,29.78,10.0,South,9.2,-,N/A,,Clear,190,2013-01-28 13:15:00
7:35 AM,33.8,24.8,70,29.78,10.0,South,8.1,-,N/A,,Clear,190,2013-01-28 13:35:00
7:55 AM,33.8,26.6,75,29.78,10.0,South,8.1,-,N/A,,Clear,190,2013-01-28 13:55:00
8:15 AM,37.4,30.2,75,29.79,10.0,SSW,11.5,-,N/A,,Clear,210,2013-01-28 14:15:00
8:35 AM,39.2,30.2,70,29.78,10.0,SW,11.5,-,N/A,,Clear,220,2013-01-28 14:35:00
8:55 AM,41.0,32.0,70,29.78,10.0,SSW,16.1,20.7,N/A,,Clear,210,2013-01-28 14:55:00
9:15 AM,46.4,35.6,66,29.79,10.0,SSW,21.9,-,N/A,,Clear,210,2013-01-28 15:15:00
9:35 AM,50.0,37.4,62,29.79,10.0,SSW,21.9,27.6,N/A,,Clear,210,2013-01-28 15:35:00
9:55 AM,53.6,39.2,58,29.79,10.0,SSW,25.3,29.9,N/A,,Clear,210,2013-01-28 15:55:00
10:15 AM,55.4,39.2,54,29.79,10.0,SSW,25.3,28.8,N/A,,Clear,210,2013-01-28 16:15:00
10:35 AM,57.2,39.2,51,29.78,10.0,SW,27.6,35.7,N/A,,Clear,220,2013-01-28 16:35:00
10:55 AM,60.8,39.2,45,29.78,10.0,SSW,23.0,32.2,N/A,,Clear,210,2013-01-28 16:55:00
11:15 AM,62.6,39.2,42,29.78,10.0,SW,26.5,35.7,N/A,,Clear,220,2013-01-28 17:15:00
11:35 AM,62.6,39.2,42,29.77,10.0,SW,32.2,39.1,N/A,,Clear,220,2013-01-28 17:35:00
11:55 AM,64.4,39.2,40,29.75,10.0,SSW,32.2,39.1,N/A,,Clear,210,2013-01-28 17:55:00
12:35 PM,66.2,37.4,35,29.73,10.0,SW,32.2,40.3,N/A,,Clear,220,2013-01-28 18:35:00
12:55 PM,68.0,37.4,33,29.72,10.0,SSW,29.9,38.0,N/A,,Clear,210,2013-01-28 18:55:00
1:15 PM,69.8,37.4,31,29.70,10.0,SW,26.5,33.4,N/A,,Clear,220,2013-01-28 19:15:00
1:35 PM,69.8,35.6,28,29.69,10.0,SW,32.2,39.1,N/A,,Clear,220,2013-01-28 19:35:00
1:55 PM,69.8,35.6,28,29.68,10.0,SW,33.4,43.7,N/A,,Clear,230,2013-01-28 19:55:00
2:15 PM,69.8,33.8,27,29.66,10.0,SW,31.1,43.7,N/A,,Clear,220,2013-01-28 20:15:00
2:35 PM,69.8,33.8,27,29.66,9.0,SSW,33.4,43.7,N/A,,Scattered Clouds,210,2013-01-28 20:35:00
2:55 PM,69.8,33.8,27,29.65,10.0,SW,35.7,44.9,N/A,,Partly Cloudy,220,2013-01-28 20:55:00
3:15 PM,69.8,33.8,27,29.65,10.0,SW,34.5,41.4,N/A,,Clear,220,2013-01-28 21:15:00
3:35 PM,69.8,32.0,25,29.65,10.0,SW,34.5,42.6,N/A,,Clear,220,2013-01-28 21:35:00
3:55 PM,69.8,32.0,25,29.64,10.0,SW,34.5,42.6,N/A,,Clear,220,2013-01-28 21:55:00
4:15 PM,69.8,30.2,23,29.64,10.0,SW,34.5,44.9,N/A,,Clear,220,2013-01-28 22:15:00
4:35 PM,69.8,30.2,23,29.64,10.0,SW,31.1,41.4,N/A,,Clear,220,2013-01-28 22:35:00
4:55 PM,68.0,30.2,24,29.64,10.0,SW,26.5,35.7,N/A,,Clear,220,2013-01-28 22:55:00
5:15 PM,66.2,30.2,26,29.63,10.0,SW,23.0,28.8,N/A,,Clear,230,2013-01-28 23:15:00
5:35 PM,66.2,32.0,28,29.64,10.0,SW,23.0,28.8,N/A,,Clear,220,2013-01-28 23:35:00
5:55 PM,66.2,30.2,26,29.64,10.0,SW,24.2,33.4,N/A,,Clear,230,2013-01-28 23:55:00
6:15 PM,64.4,28.4,26,29.64,10.0,SW,23.0,31.1,N/A,,Clear,220,2013-01-29 00:15:00
6:35 PM,62.6,28.4,27,29.65,10.0,SW,19.6,25.3,N/A,,Clear,230,2013-01-29 00:35:00
6:55 PM,60.8,28.4,29,29.65,10.0,SW,15.0,-,N/A,,Clear,220,2013-01-29 00:55:00
7:15 PM,60.8,28.4,29,29.66,10.0,SW,15.0,-,N/A,,Clear,220,2013-01-29 01:15:00
7:35 PM,59.0,28.4,31,29.66,10.0,SW,17.3,21.9,N/A,,Clear,220,2013-01-29 01:35:00
7:55 PM,57.2,28.4,33,29.66,10.0,SSW,16.1,-,N/A,,Clear,210,2013-01-29 01:55:00
8:15 PM,57.2,28.4,33,29.66,10.0,SSW,20.7,-,N/A,,Clear,210,2013-01-29 02:15:00
8:35 PM,57.2,28.4,33,29.66,10.0,SW,16.1,-,N/A,,Clear,220,2013-01-29 02:35:00
8:55 PM,55.4,26.6,33,29.66,10.0,SSW,11.5,-,N/A,,Clear,210,2013-01-29 02:55:00
9:15 PM,53.6,28.4,38,29.66,10.0,SSW,13.8,-,N/A,,Clear,210,2013-01-29 03:15:00
9:35 PM,51.8,28.4,41,29.66,10.0,SW,11.5,-,N/A,,Partly Cloudy,220,2013-01-29 03:35:00
9:55 PM,51.8,28.4,41,29.66,10.0,SSW,11.5,-,N/A,,Clear,210,2013-01-29 03:55:00
10:15 PM,48.2,28.4,46,29.66,10.0,SSW,13.8,-,N/A,,Clear,210,2013-01-29 04:15:00
10:35 PM,48.2,28.4,46,29.66,10.0,SSW,13.8,-,N/A,,Clear,210,2013-01-29 04:35:00
10:55 PM,48.2,28.4,46,29.67,10.0,SW,11.5,-,N/A,,Clear,220,2013-01-29 04:55:00
11:15 PM,46.4,28.4,50,29.67,10.0,SW,12.7,-,N/A,,Clear,220,2013-01-29 05:15:00
11:35 PM,50.0,28.4,43,29.67,10.0,SW,15.0,-,N/A,,Clear,220,2013-01-29 05:35:00
11:55 PM,51.8,28.4,41,29.67,10.0,SW,15.0,-,N/A,,Clear,230,2013-01-29 05:55:00